Time,TemperatureF,DewpointF,PressureIn,WindDirection,WindDirectionDegrees,WindSpeedMPH,WindSpeedGustMPH,Humidity,HourlyPrecipIn,Conditions,Clouds,dailyrainin,SolarRadiationWatts/m^2,SoftwareType,DateUTC
2013-08-03 00:02:00,60.0,52.0,-100.00,North,352,2.0,3.0,75,0.00,,,0.00,0.000000,,2013-08-03 04:02:00,
2013-08-03 00:33:00,60.0,52.0,-100.00,WNW,301,2.0,4.0,75,0.00,,,0.00,0.000000,,2013-08-03 04:33:00,
2013-08-03 00:43:00,60.0,52.0,-100.00,WNW,301,2.0,4.0,75,0.00,,,0.00,0.000000,,2013-08-03 04:43:00,
2013-08-03 00:53:00,60.0,52.0,-100.00,WNW,301,2.0,4.0,75,0.00,,,0.00,0.000000,,2013-08-03 04:53:00,
2013-08-03 01:02:00,60.0,52.0,-100.00,WNW,301,2.0,4.0,75,0.00,,,0.00,0.000000,,2013-08-03 05:02:00,
2013-08-03 01:32:00,63.0,53.0,-100.00,NW,308,3.0,6.0,70,0.00,,,0.00,0.000000,,2013-08-03 05:32:00,
2013-08-03 01:42:00,63.0,53.0,-100.00,NW,308,3.0,6.0,70,0.00,,,0.00,0.000000,,2013-08-03 05:42:00,
2013-08-03 01:53:00,63.0,53.0,-100.00,NW,308,3.0,6.0,70,0.00,,,0.00,0.000000,,2013-08-03 05:53:00,
2013-08-03 02:02:00,63.0,53.0,-100.00,NW,308,3.0,6.0,70,0.00,,,0.00,0.000000,,2013-08-03 06:02:00,
2013-08-03 02:33:00,61.0,55.0,-100.00,WNW,296,2.0,6.0,82,0.00,,,0.00,0.000000,,2013-08-03 06:33:00,
2013-08-03 02:42:00,61.0,55.0,-100.00,WNW,296,2.0,6.0,82,0.00,,,0.00,0.000000,,2013-08-03 06:42:00,
2013-08-03 02:52:00,61.0,55.0,-100.00,WNW,296,2.0,6.0,82,0.00,,,0.00,0.000000,,2013-08-03 06:52:00,
2013-08-03 03:02:00,61.0,55.0,-100.00,WNW,296,2.0,6.0,82,0.00,,,0.00,0.000000,,2013-08-03 07:02:00,
2013-08-03 03:32:00,61.0,60.0,-100.00,West,266,2.0,7.0,96,0.04,,,0.04,0.000000,,2013-08-03 07:32:00,
2013-08-03 03:43:00,61.0,60.0,-100.00,West,266,2.0,7.0,96,0.04,,,0.04,0.000000,,2013-08-03 07:43:00,
2013-08-03 03:53:00,61.0,60.0,-100.00,West,266,2.0,7.0,96,0.04,,,0.04,0.000000,,2013-08-03 07:53:00,
2013-08-03 04:02:00,61.0,60.0,-100.00,West,266,2.0,7.0,96,0.04,,,0.04,0.000000,,2013-08-03 08:02:00,
2013-08-03 04:32:00,61.0,60.0,-100.00,NNW,340,1.0,2.0,98,0.00,,,0.04,0.000000,,2013-08-03 08:32:00,
2013-08-03 04:43:00,61.0,60.0,-100.00,NNW,340,1.0,2.0,98,0.00,,,0.04,0.000000,,2013-08-03 08:43:00,
2013-08-03 04:52:00,61.0,60.0,-100.00,NNW,340,1.0,2.0,98,0.00,,,0.04,0.000000,,2013-08-03 08:52:00,
2013-08-03 05:02:00,61.0,60.0,-100.00,NNW,340,1.0,2.0,98,0.00,,,0.04,0.000000,,2013-08-03 09:02:00,
2013-08-03 05:32:00,63.0,63.0,-100.00,NW,312,3.0,7.0,99,0.00,,,0.04,0.000000,,2013-08-03 09:32:00,
2013-08-03 05:43:00,63.0,63.0,-100.00,NW,312,3.0,7.0,99,0.00,,,0.04,0.000000,,2013-08-03 09:43:00,
2013-08-03 05:53:00,63.0,63.0,-100.00,NW,312,3.0,7.0,99,0.00,,,0.04,0.000000,,2013-08-03 09:53:00,
2013-08-03 06:02:00,63.0,63.0,-100.00,NW,312,3.0,7.0,99,0.00,,,0.04,0.000000,,2013-08-03 10:02:00,
2013-08-03 06:33:00,63.0,62.0,-100.00,NNW,339,2.0,9.0,96,0.00,,,0.04,0.000000,,2013-08-03 10:33:00,
2013-08-03 06:43:00,63.0,62.0,-100.00,NNW,339,2.0,9.0,96,0.00,,,0.04,0.000000,,2013-08-03 10:43:00,
2013-08-03 06:53:00,63.0,62.0,-100.00,NNW,339,2.0,9.0,96,0.00,,,0.04,0.000000,,2013-08-03 10:53:00,
2013-08-03 07:02:00,63.0,62.0,-100.00,NNW,339,2.0,9.0,96,0.00,,,0.04,0.000000,,2013-08-03 11:02:00,
2013-08-03 07:32:00,63.0,62.0,-100.00,NNW,331,3.0,7.0,97,0.02,,,0.06,3.000000,,2013-08-03 11:32:00,
2013-08-03 07:43:00,63.0,62.0,-100.00,NNW,331,3.0,7.0,97,0.02,,,0.06,3.000000,,2013-08-03 11:43:00,
2013-08-03 07:53:00,63.0,62.0,-100.00,NNW,331,3.0,7.0,97,0.02,,,0.06,3.000000,,2013-08-03 11:53:00,
2013-08-03 08:03:00,63.0,62.0,-100.00,NNW,331,3.0,7.0,97,0.02,,,0.06,3.000000,,2013-08-03 12:03:00,
2013-08-03 08:33:00,63.0,62.0,-100.00,WNW,291,2.0,4.0,98,0.15,,,0.21,15.000000,,2013-08-03 12:33:00,
2013-08-03 08:43:00,63.0,62.0,-100.00,WNW,291,2.0,4.0,98,0.15,,,0.21,15.000000,,2013-08-03 12:43:00,
2013-08-03 08:53:00,63.0,62.0,-100.00,WNW,291,2.0,4.0,98,0.15,,,0.21,15.000000,,2013-08-03 12:53:00,
2013-08-03 09:02:00,63.0,62.0,-100.00,WNW,291,2.0,4.0,98,0.15,,,0.21,15.000000,,2013-08-03 13:02:00,
2013-08-03 09:33:00,64.0,63.0,-100.00,WNW,301,2.0,6.0,98,0.01,,,0.22,73.000000,,2013-08-03 13:33:00,
2013-08-03 09:43:00,64.0,63.0,-100.00,WNW,301,2.0,6.0,98,0.01,,,0.22,73.000000,,2013-08-03 13:43:00,
2013-08-03 09:52:00,64.0,63.0,-100.00,WNW,301,2.0,6.0,98,0.01,,,0.22,73.000000,,2013-08-03 13:52:00,
2013-08-03 10:02:00,64.0,63.0,-100.00,WNW,301,2.0,6.0,98,0.01,,,0.22,73.000000,,2013-08-03 14:02:00,
2013-08-03 10:33:00,64.0,63.0,-100.00,North,355,1.0,7.0,96,0.11,,,0.33,61.000000,,2013-08-03 14:33:00,
2013-08-03 10:43:00,64.0,63.0,-100.00,North,355,1.0,7.0,96,0.11,,,0.33,61.000000,,2013-08-03 14:43:00,
2013-08-03 10:52:00,64.0,63.0,-100.00,North,355,1.0,7.0,96,0.11,,,0.33,61.000000,,2013-08-03 14:52:00,
2013-08-03 11:02:00,64.0,63.0,-100.00,North,355,1.0,7.0,96,0.11,,,0.33,61.000000,,2013-08-03 15:02:00,
2013-08-03 11:32:00,69.0,66.0,-100.00,NNW,347,4.0,8.0,89,0.00,,,0.33,348.000000,,2013-08-03 15:32:00,
2013-08-03 11:43:00,69.0,66.0,-100.00,NNW,347,4.0,8.0,89,0.00,,,0.33,348.000000,,2013-08-03 15:43:00,
2013-08-03 11:53:00,69.0,66.0,-100.00,NNW,347,4.0,8.0,89,0.00,,,0.33,348.000000,,2013-08-03 15:53:00,
2013-08-03 12:02:00,69.0,66.0,-100.00,NNW,347,4.0,8.0,89,0.00,,,0.33,348.000000,,2013-08-03 16:02:00,
2013-08-03 12:33:00,71.0,61.0,-100.00,WNW,297,3.0,10.0,70,0.00,,,0.33,531.000000,,2013-08-03 16:33:00,
2013-08-03 12:43:00,71.0,61.0,-100.00,WNW,297,3.0,10.0,70,0.00,,,0.33,531.000000,,2013-08-03 16:43:00,
2013-08-03 12:53:00,71.0,61.0,-100.00,WNW,297,3.0,10.0,70,0.00,,,0.33,531.000000,,2013-08-03 16:53:00,
2013-08-03 13:03:00,71.0,61.0,-100.00,WNW,297,3.0,10.0,70,0.00,,,0.33,531.000000,,2013-08-03 17:03:00,
2013-08-03 13:32:00,70.0,62.0,-100.00,WNW,291,4.0,9.0,77,0.00,,,0.33,367.000000,,2013-08-03 17:32:00,
2013-08-03 13:43:00,70.0,62.0,-100.00,WNW,291,4.0,9.0,77,0.00,,,0.33,367.000000,,2013-08-03 17:43:00,
2013-08-03 13:52:00,70.0,62.0,-100.00,WNW,291,4.0,9.0,77,0.00,,,0.33,367.000000,,2013-08-03 17:52:00,
2013-08-03 14:02:00,70.0,62.0,-100.00,WNW,291,4.0,9.0,77,0.00,,,0.33,367.000000,,2013-08-03 18:02:00,
2013-08-03 14:32:00,76.0,62.0,-100.00,WNW,284,4.0,11.0,61,0.00,,,0.33,844.000000,,2013-08-03 18:32:00,
2013-08-03 14:43:00,76.0,62.0,-100.00,WNW,284,4.0,11.0,61,0.00,,,0.33,844.000000,,2013-08-03 18:43:00,
2013-08-03 14:53:00,76.0,62.0,-100.00,WNW,284,4.0,11.0,61,0.00,,,0.33,844.000000,,2013-08-03 18:53:00,
2013-08-03 15:03:00,76.0,62.0,-100.00,WNW,284,4.0,11.0,61,0.00,,,0.33,844.000000,,2013-08-03 19:03:00,
2013-08-03 15:33:00,74.0,61.0,-100.00,West,259,3.0,10.0,63,0.00,,,0.33,487.000000,,2013-08-03 19:33:00,
2013-08-03 15:43:00,74.0,61.0,-100.00,West,259,3.0,10.0,63,0.00,,,0.33,487.000000,,2013-08-03 19:43:00,
2013-08-03 15:53:00,74.0,61.0,-100.00,West,259,3.0,10.0,63,0.00,,,0.33,487.000000,,2013-08-03 19:53:00,
2013-08-03 16:02:00,74.0,61.0,-100.00,West,259,3.0,10.0,63,0.00,,,0.33,487.000000,,2013-08-03 20:02:00,
2013-08-03 16:32:00,79.0,62.0,-100.00,North,351,4.0,9.0,57,0.00,,,0.33,518.000000,,2013-08-03 20:32:00,
2013-08-03 16:42:00,79.0,62.0,-100.00,North,351,4.0,9.0,57,0.00,,,0.33,518.000000,,2013-08-03 20:42:00,
2013-08-03 16:52:00,79.0,62.0,-100.00,North,351,4.0,9.0,57,0.00,,,0.33,518.000000,,2013-08-03 20:52:00,
2013-08-03 17:02:00,79.0,62.0,-100.00,North,351,4.0,9.0,57,0.00,,,0.33,518.000000,,2013-08-03 21:02:00,
2013-08-03 17:32:00,76.0,58.0,-100.00,North,6,4.0,9.0,54,0.00,,,0.33,486.000000,,2013-08-03 21:32:00,
2013-08-03 17:42:00,76.0,58.0,-100.00,North,6,4.0,9.0,54,0.00,,,0.33,486.000000,,2013-08-03 21:42:00,
2013-08-03 17:52:00,76.0,58.0,-100.00,North,6,4.0,9.0,54,0.00,,,0.33,486.000000,,2013-08-03 21:52:00,
2013-08-03 18:02:00,76.0,58.0,-100.00,North,6,4.0,9.0,54,0.00,,,0.33,486.000000,,2013-08-03 22:02:00,
2013-08-03 18:33:00,77.0,54.0,-100.00,North,356,3.0,9.0,45,0.00,,,0.33,338.000000,,2013-08-03 22:33:00,
2013-08-03 18:43:00,77.0,54.0,-100.00,North,356,3.0,9.0,45,0.00,,,0.33,338.000000,,2013-08-03 22:43:00,
2013-08-03 18:52:00,77.0,54.0,-100.00,North,356,3.0,9.0,45,0.00,,,0.33,338.000000,,2013-08-03 22:52:00,
2013-08-03 19:02:00,77.0,54.0,-100.00,North,356,3.0,9.0,45,0.00,,,0.33,338.000000,,2013-08-03 23:02:00,
2013-08-03 19:32:00,70.0,55.0,-100.00,NNW,339,1.0,7.0,59,0.00,,,0.33,143.000000,,2013-08-03 23:32:00,
2013-08-03 19:43:00,70.0,55.0,-100.00,NNW,339,1.0,7.0,59,0.00,,,0.33,143.000000,,2013-08-03 23:43:00,
2013-08-03 19:52:00,70.0,55.0,-100.00,NNW,339,1.0,7.0,59,0.00,,,0.33,143.000000,,2013-08-03 23:52:00,
2013-08-03 20:03:00,70.0,55.0,-100.00,NNW,339,1.0,7.0,59,0.00,,,0.33,143.000000,,2013-08-04 00:03:00,
2013-08-03 20:42:00,64.0,57.0,-100.00,NNW,340,2.0,3.0,79,0.00,,,0.33,20.000000,,2013-08-04 00:42:00,
2013-08-03 20:53:00,64.0,57.0,-100.00,NNW,340,2.0,3.0,79,0.00,,,0.33,20.000000,,2013-08-04 00:53:00,
2013-08-03 21:02:00,64.0,57.0,-100.00,NNW,340,2.0,3.0,79,0.00,,,0.33,20.000000,,2013-08-04 01:02:00,
2013-08-03 21:32:00,61.0,55.0,-100.00,North,356,2.0,3.0,81,0.00,,,0.33,2.000000,,2013-08-04 01:32:00,
2013-08-03 21:42:00,61.0,55.0,-100.00,North,356,2.0,3.0,81,0.00,,,0.33,2.000000,,2013-08-04 01:42:00,
2013-08-03 21:53:00,61.0,55.0,-100.00,North,356,2.0,3.0,81,0.00,,,0.33,2.000000,,2013-08-04 01:53:00,
2013-08-03 22:03:00,61.0,55.0,-100.00,North,356,2.0,3.0,81,0.00,,,0.33,2.000000,,2013-08-04 02:03:00,
2013-08-03 22:32:00,59.0,52.0,-100.00,NW,324,2.0,3.0,78,0.00,,,0.33,0.000000,,2013-08-04 02:32:00,
2013-08-03 22:42:00,59.0,52.0,-100.00,NW,324,2.0,3.0,78,0.00,,,0.33,0.000000,,2013-08-04 02:42:00,
2013-08-03 22:52:00,59.0,52.0,-100.00,NW,324,2.0,3.0,78,0.00,,,0.33,0.000000,,2013-08-04 02:52:00,
2013-08-03 23:02:00,59.0,52.0,-100.00,NW,324,2.0,3.0,78,0.00,,,0.33,0.000000,,2013-08-04 03:02:00,
2013-08-03 23:32:00,58.0,50.0,-100.00,NNW,332,2.0,3.0,76,0.00,,,0.33,0.000000,,2013-08-04 03:32:00,
2013-08-03 23:42:00,58.0,50.0,-100.00,NNW,332,2.0,3.0,76,0.00,,,0.33,0.000000,,2013-08-04 03:42:00,
2013-08-03 23:52:00,58.0,50.0,-100.00,NNW,332,2.0,3.0,76,0.00,,,0.33,0.000000,,2013-08-04 03:52:00,